Location: Gazon
(48.1318°N, 1.2708°W)
Time: 02:12:21
(UTC+00:00)

ATLAS 3B R/B - Pass Details

Date: 18 September 2020
Orbit: 1016 x 1179 km, 63.8° (Epoch: 28 October)

Event Time Altitude Azimuth Distance (km) Brightness Sun altitude
Rises 23:11:29 0° 314° (NW) 3,851 6.3 -39.4°
Reaches altitude 10° 23:14:24 10° 304° (NW) 2,917 5.4 -39.5°
Enters shadow 23:17:17 22° 284° (WNW) 2,179 4.5 -39.7°
